Project,Study,Ord_Occ,Event_Num,Cast_ID,Date_Time_UTC,Date_Time_PST,Lat_Dec,Lon_Dec,Sta_ID,Line,Sta,Depth,Pressure,PrQ,Temp1,Temp1Q,Temp2,Temp2Q,TempAve,Salt1,Salt1Q,Salt1_Corr,Salt2,Salt2Q,Salt2_Corr,SaltAve_Corr,Ox1,Ox1Q,Ox1_CruiseCorr,Ox1_StaCorr,Ox2,Ox2Q,Ox2_CruiseCorr,Ox2_StaCorr,OxAve_StaCorr,Ox1uM,Ox1uM_CruiseCorr,Ox1uM_StaCorr,Ox2uM,Ox2uM_CruiseCorr,Ox2uM_StaCorr,OxAveuM_StaCorr,FluorV,FluorQ,EstChl_CruiseCorr,EstChl_StaCorr,ISUSV,ISUSQ,EstNO3_CruiseCorr,EstNO3_StaCorr,SigThetaTS1,SigThetaTS1Q,SigThetaTS2,SigThetaTS2Q,BAT,XMiss,TransQ,pH,pHQ,SPAR,SPARQ,PAR,PARQ,PoT1,PoT2,DynHt,SVA,OxSat1,OxSat2,BTL_Depth,BTL_Temp,SaltB,OxB,OxBuM,Chl-a,Phaeo,NO3,NO2,NH4,PO4,SIL
CalCOFI,2007SR,040,42,2007_040u,20-Jul-2020 10:02:54,20-Jul-2020 02:02:54,33.15706,-120.00652,086.7 055.0,086.7,055.0,517.000,521.334,,6.2542,,6.2539,,6.2541,34.3013,,34.3015,34.3030,,34.3046,34.3031,0.3289,,0.3260,0.3242,1.9566,,0.7298,0.7475,0.5359,14.299,14.4386,23.2494,85.087,,41.7081,32.4788,0.0329,,,,,,,,26.9740,,26.9754,,0.6416,85.1795,,7.536,,1.9043E+00,,1.0000E-12,,6.2078,6.2075,0.8803,,4.765,28.357,,,,,,,,,,,,
CalCOFI,2007SR,040,42,2007_040u,20-Jul-2020 10:03:43,20-Jul-2020 02:03:43,33.15705,-120.00652,086.7 055.0,086.7,055.0,516.000,520.324,,6.2523,,6.2521,,6.2522,34.3048,,34.3050,34.3063,,34.3079,34.3065,0.3231,,0.3199,0.3182,1.9008,,0.5966,0.6067,0.4625,14.050,14.1787,23.0309,82.660,,36.7270,29.8790,0.0322,,,,,,,,26.9770,,26.9782,,0.6419,85.1744,,7.538,,1.9043E+00,,1.0000E-12,,6.2059,6.2057,0.8833,,4.682,27.548,516,6.252,34.3049,0.315,13.74,,,,,,,75.35
CalCOFI,2007SR,040,42,2007_040u,20-Jul-2020 10:04:47,20-Jul-2020 02:04:47,33.15707,-120.00654,086.7 055.0,086.7,055.0,515.000,519.315,,6.2502,,6.2496,,6.2499,34.3041,,34.3043,34.3057,,34.3073,34.3058,0.3225,,0.3193,0.3175,1.8531,,0.4827,0.4864,0.4020,14.025,14.1526,23.0090,80.584,,32.4663,27.7377,0.0331,,,,,,,,26.9767,,26.9780,,0.6416,85.1795,,7.542,,1.9043E+00,,1.0000E-12,,6.2039,6.2033,0.8868,,4.674,26.854,,,,,,,,,,,,
CalCOFI,2007SR,040,42,2007_040u,20-Jul-2020 10:04:53,20-Jul-2020 02:04:53,33.15708,-120.00654,086.7 055.0,086.7,055.0,514.000,518.305,,6.2487,,6.2485,,6.2486,34.3037,,34.3039,34.3051,,34.3067,34.3053,0.3254,,0.3223,0.3206,1.8519,,0.4798,0.4833,0.4020,14.150,14.2831,23.1187,80.532,,32.3596,27.7392,0.0324,,,,,,,,26.9765,,26.9777,,0.6410,85.1937,,7.542,,1.9043E+00,,1.0000E-12,,6.2026,6.2024,0.8870,,4.715,26.836,,,,,,,,,,,,
CalCOFI,2007SR,040,42,2007_040u,20-Jul-2020 10:04:54,20-Jul-2020 02:04:54,33.15708,-120.00654,086.7 055.0,086.7,055.0,513.000,517.295,,6.2522,,6.2526,,6.2524,34.3023,,34.3025,34.3037,,34.3053,34.3039,0.3310,,0.3282,0.3264,1.8523,,0.4808,0.4843,0.4054,14.393,14.5368,23.3319,80.552,,32.4006,27.8663,0.0331,,,,,,,,26.9750,,26.9761,,0.6411,85.1913,,7.542,,1.9043E+00,,1.0000E-12,,6.2062,6.2065,0.8870,,4.797,26.845,,,,,,,,,,,,
CalCOFI,2007SR,040,42,2007_040u,20-Jul-2020 10:04:55,20-Jul-2020 02:04:55,33.15708,-120.00654,086.7 055.0,086.7,055.0,512.000,516.286,,6.2562,,6.2563,,6.2563,34.3015,,34.3017,34.3027,,34.3043,34.3030,0.3338,,0.3311,0.3294,1.8521,,0.4803,0.4838,0.4066,14.517,14.6662,23.4408,80.544,,32.3842,27.9125,0.0320,,,,,,,,26.9738,,26.9748,,0.6414,85.1837,,7.542,,1.9043E+00,,1.0000E-12,,6.2102,6.2103,0.8870,,4.838,26.845,,,,,,,,,,,,
CalCOFI,2007SR,040,42,2007_040u,20-Jul-2020 10:04:56,20-Jul-2020 02:04:56,33.15708,-120.00654,086.7 055.0,086.7,055.0,511.000,515.276,,6.2558,,6.2556,,6.2557,34.2998,,34.3000,34.3009,,34.3025,34.3013,0.3366,,0.3340,0.3323,1.8458,,0.4653,0.4679,0.4001,14.639,14.7936,23.5478,80.268,,31.8178,27.6828,0.0322,,,,,,,,26.9725,,26.9734,,0.6408,85.1969,,7.542,,1.9043E+00,,1.0000E-12,,6.2099,6.2097,0.8870,,4.879,26.752,,,,,,,,,,,,
CalCOFI,2007SR,040,42,2007_040u,20-Jul-2020 10:04:57,20-Jul-2020 02:04:57,33.15708,-120.00654,086.7 055.0,086.7,055.0,510.000,514.266,,6.2512,,6.2514,,6.2513,34.2954,,34.2956,34.2966,,34.2982,34.2969,0.3393,,0.3368,0.3351,1.8474,,0.4691,0.4720,0.4036,14.754,14.9136,23.6488,80.336,,31.9573,27.8031,0.0329,,,,,,,,26.9696,,26.9706,,0.6405,85.2037,,7.542,,1.9043E+00,,1.0000E-12,,6.2054,6.2056,0.8870,,4.916,26.771,,,,,,,,,,,,
CalCOFI,2007SR,040,42,2007_040u,20-Jul-2020 10:04:58,20-Jul-2020 02:04:58,33.15708,-120.00654,086.7 055.0,086.7,055.0,509.000,513.257,,6.2517,,6.2519,,6.2518,34.2947,,34.2949,34.2959,,34.2975,34.2962,0.3425,,0.3402,0.3385,1.8462,,0.4662,0.4690,0.4038,14.895,15.0608,23.7725,80.285,,31.8526,27.8126,0.0332,,,,-99.0,,-99.0,-99.0,26.9690,,26.9699,,0.6400,85.2150,,7.542,,1.9043E+00,,1.0000E-12,,6.2060,6.2062,0.8870,,4.964,26.754,,,,,,,,,,,,
CalCOFI,2007SR,040,42,2007_040u,20-Jul-2020 10:04:59,20-Jul-2020 02:04:59,33.15708,-120.00654,086.7 055.0,086.7,055.0,508.000,512.247,,6.2524,,6.2525,,6.2525,34.2943,,34.2945,34.2954,,34.2970,34.2958,0.3431,,0.3408,0.3391,1.8465,,0.4669,0.4697,0.4044,14.919,15.0858,23.7936,80.297,,31.8773,27.8355,0.0331,,,,-99.0,,-99.0,-99.0,26.9686,,26.9695,,0.6398,85.2193,,7.542,,1.9043E+00,,1.0000E-12,,6.2068,6.2069,0.8870,,4.971,26.758,,,,,,,,,,,,
CalCOFI,2007SR,040,42,2007_040u,20-Jul-2020 10:05:00,20-Jul-2020 02:05:00,33.15708,-120.00654,086.7 055.0,086.7,055.0,507.000,511.238,,6.2535,,6.2536,,6.2536,34.2940,,34.2942,34.2954,,34.2970,34.2956,0.3382,,0.3357,0.3340,1.8473,,0.4689,0.4717,0.4029,14.708,14.8656,23.6084,80.333,,31.9512,27.7798,0.0327,,,,-99.0,,-99.0,-99.0,26.9682,,26.9693,,0.6405,85.2030,,7.542,,1.9043E+00,,1.0000E-12,,6.2080,6.2081,0.8870,,4.901,26.771,,,,,,,,,,,,
CalCOFI,2007SR,040,42,2007_040u,20-Jul-2020 10:05:01,20-Jul-2020 02:05:01,33.15708,-120.00654,086.7 055.0,086.7,055.0,506.000,510.228,,6.2539,,6.2541,,6.2540,34.2939,,34.2941,34.2953,,34.2969,34.2955,0.3394,,0.3369,0.3352,1.8439,,0.4607,0.4632,0.3992,14.759,14.9188,23.6532,80.184,,31.6454,27.6493,0.0323,,,,-99.0,,-99.0,-99.0,26.9681,,26.9691,,0.6404,85.2048,,7.542,,1.9043E+00,,1.0000E-12,,6.2085,6.2087,0.8870,,4.918,26.722,,,,,,,,,,,,
CalCOFI,2007SR,040,42,2007_040u,20-Jul-2020 10:05:02,20-Jul-2020 02:05:02,33.15708,-120.00654,086.7 055.0,086.7,055.0,505.000,509.218,,6.2547,,6.2548,,6.2548,34.2940,,34.2942,34.2954,,34.2970,34.2956,0.3444,,0.3422,0.3405,1.8421,,0.4564,0.4586,0.3996,14.976,15.1453,23.8436,80.106,,31.4853,27.6645,0.0324,,,,-99.0,,-99.0,-99.0,26.9680,,26.9691,,0.6402,85.2096,,7.542,,1.9043E+00,,1.0000E-12,,6.2093,6.2095,0.8870,,4.991,26.696,,,,,,,,,,,,
CalCOFI,2007SR,040,42,2007_040u,20-Jul-2020 10:05:03,20-Jul-2020 02:05:03,33.15708,-120.00654,086.7 055.0,086.7,055.0,504.000,508.209,,6.2554,,6.2557,,6.2556,34.2940,,34.2942,34.2953,,34.2969,34.2956,0.3443,,0.3421,0.3404,1.8491,,0.4732,0.4763,0.4084,14.974,15.1433,23.8419,80.412,,32.1133,27.9776,0.0326,,,,-99.0,,-99.0,-99.0,26.9680,,26.9689,,0.6400,85.2135,,7.542,,1.9043E+00,,1.0000E-12,,6.2101,6.2105,0.8870,,4.990,26.799,,,,,,,,,,,,
CalCOFI,2007SR,040,42,2007_040u,20-Jul-2020 10:05:04,20-Jul-2020 02:05:04,33.15708,-120.00654,086.7 055.0,086.7,055.0,503.000,507.199,,6.2602,,6.2600,,6.2601,34.2939,,34.2941,34.2952,,34.2968,34.2955,0.3445,,0.3423,0.3406,1.8385,,0.4479,0.4495,0.3951,14.980,15.1495,23.8471,79.951,,31.1672,27.5072,0.0327,,,,-99.0,,-99.0,-99.0,26.9672,,26.9683,,0.6400,85.2140,,7.542,,1.9043E+00,,1.0000E-12,,6.2150,6.2148,0.8870,,4.993,26.648,,,,,,,,,,,,
CalCOFI,2007SR,040,42,2007_040u,20-Jul-2020 10:05:05,20-Jul-2020 02:05:05,33.15708,-120.00654,086.7 055.0,086.7,055.0,502.000,506.190,,6.2776,,6.2786,,6.2781,34.2910,,34.2912,34.2925,,34.2941,34.2927,0.3503,,0.3483,0.3466,1.8398,,0.4510,0.4528,0.3997,15.233,15.4136,24.0692,80.008,,31.2841,27.6767,0.0321,,,,-99.0,,-99.0,-99.0,26.9626,,26.9638,,0.6397,85.2206,,7.542,,1.9043E+00,,1.0000E-12,,6.2325,6.2334,0.8870,,5.079,26.677,,,,,,,,,,,,
CalCOFI,2007SR,040,42,2007_040u,20-Jul-2020 10:05:06,20-Jul-2020 02:05:06,33.15708,-120.00654,086.7 055.0,086.7,055.0,501.000,505.180,,6.2878,,6.2881,,6.2880,34.2896,,34.2898,34.2910,,34.2926,34.2912,0.3469,,0.3448,0.3431,1.8380,,0.4467,0.4483,0.3957,15.085,15.2591,23.9393,79.929,,31.1220,27.5307,0.0325,,,,-99.0,,-99.0,-99.0,26.9603,,26.9613,,0.6397,85.2205,,7.542,,1.9043E+00,,1.0000E-12,,6.2427,6.2430,0.8870,,5.031,26.657,,,,,,,,,,,,
CalCOFI,2007SR,040,42,2007_040u,20-Jul-2020 10:05:07,20-Jul-2020 02:05:07,33.15708,-120.00654,086.7 055.0,086.7,055.0,500.000,504.170,,6.2962,,6.2973,,6.2968,34.2886,,34.2888,34.2898,,34.2914,34.2901,0.3531,,0.3513,0.3496,1.8404,,0.4524,0.4543,0.4020,15.354,15.5399,24.1754,80.035,,31.3396,27.7575,0.0333,,,,-99.0,,-99.0,-99.0,26.9584,,26.9592,,0.6401,85.2123,,7.542,,1.9043E+00,,1.0000E-12,,6.2512,6.2523,0.8870,,5.122,26.697,,,,,,,,,,,,
CalCOFI,2007SR,040,42,2007_040u,20-Jul-2020 10:05:08,20-Jul-2020 02:05:08,33.15710,-120.00654,086.7 055.0,086.7,055.0,499.000,503.161,,6.3059,,6.3065,,6.3062,34.2866,,34.2868,34.2879,,34.2895,34.2882,0.3511,,0.3492,0.3475,1.8342,,0.4376,0.4387,0.3931,15.268,15.4502,24.0999,79.767,,30.7895,27.4447,0.0335,,,,-99.0,,-99.0,-99.0,26.9555,,26.9564,,0.6397,85.2205,,7.542,,1.9043E+00,,1.0000E-12,,6.2609,6.2615,0.8870,,5.094,26.613,,,,,,,,,,,,
CalCOFI,2007SR,040,42,2007_040u,20-Jul-2020 10:05:09,20-Jul-2020 02:05:09,33.15710,-120.00654,086.7 055.0,086.7,055.0,498.000,502.151,,6.3092,,6.3094,,6.3093,34.2858,,34.2860,34.2871,,34.2887,34.2874,0.3484,,0.3463,0.3446,1.8399,,0.4512,0.4531,0.3989,15.153,15.3301,23.9990,80.011,,31.2903,27.6447,0.0338,,,,-99.0,,-99.0,-99.0,26.9545,,26.9554,,0.6397,85.2205,,7.542,,1.9043E+00,,1.0000E-12,,6.2643,6.2645,0.8870,,5.056,26.697,,,,,,,,,,,,
CalCOFI,2007SR,040,42,2007_040u,20-Jul-2020 10:05:10,20-Jul-2020 02:05:10,33.15709,-120.00654,086.7 055.0,086.7,055.0,497.000,501.142,,6.3128,,6.3129,,6.3129,34.2856,,34.2858,34.2869,,34.2885,34.2872,0.3525,,0.3506,0.3489,1.8375,,0.4455,0.4470,0.3980,15.330,15.5149,24.1543,79.909,,31.0810,27.6177,0.0333,,,,-99.0,,-99.0,-99.0,26.9538,,26.9548,,0.6397,85.2205,,7.542,,1.9043E+00,,1.0000E-12,,6.2680,6.2681,0.8870,,5.115,26.664,,,,,,,,,,,,
CalCOFI,2007SR,040,42,2007_040u,20-Jul-2020 10:05:11,20-Jul-2020 02:05:11,33.15708,-120.00654,086.7 055.0,086.7,055.0,496.000,500.132,,6.3137,,6.3141,,6.3139,34.2854,,34.2856,34.2865,,34.2881,34.2869,0.3572,,0.3555,0.3539,1.8356,,0.4409,0.4422,0.3981,15.533,15.7268,24.3325,79.827,,30.9127,27.6226,0.0325,,,,-99.0,,-99.0,-99.0,26.9535,,26.9544,,0.6395,85.2246,,7.542,,1.9043E+00,,1.0000E-12,,6.2689,6.2694,0.8870,,5.183,26.638,,,,,,,,,,,,
CalCOFI,2007SR,040,42,2007_040u,20-Jul-2020 10:05:12,20-Jul-2020 02:05:12,33.15708,-120.00654,086.7 055.0,086.7,055.0,495.000,499.123,,6.3146,,6.3149,,6.3148,34.2853,,34.2855,34.2865,,34.2881,34.2868,0.3520,,0.3501,0.3484,1.8415,,0.4550,0.4571,0.4028,15.309,15.4930,24.1359,80.084,,31.4401,27.7880,0.0332,,,,-99.0,,-99.0,-99.0,26.9533,,26.9543,,0.6397,85.2205,,7.542,,1.9043E+00,,1.0000E-12,,6.2700,6.2702,0.8870,,5.108,26.724,,,,,,,,,,,,
CalCOFI,2007SR,040,42,2007_040u,20-Jul-2020 10:05:13,20-Jul-2020 02:05:13,33.15708,-120.00656,086.7 055.0,086.7,055.0,494.000,498.113,,6.3160,,6.3161,,6.3161,34.2851,,34.2853,34.2863,,34.2879,34.2866,0.3517,,0.3498,0.3481,1.8322,,0.4328,0.4336,0.3909,15.297,15.4804,24.1253,79.679,,30.6089,27.3671,0.0333,,,,-99.0,,-99.0,-99.0,26.9530,,26.9539,,0.6399,85.2172,,7.542,,1.9043E+00,,1.0000E-12,,6.2714,6.2716,0.8870,,5.105,26.590,,,,,,,,,,,,
CalCOFI,2007SR,040,42,2007_040u,20-Jul-2020 10:05:14,20-Jul-2020 02:05:14,33.15708,-120.00656,086.7 055.0,086.7,055.0,493.000,497.104,,6.3173,,6.3174,,6.3174,34.2849,,34.2851,34.2863,,34.2879,34.2865,0.3522,,0.3503,0.3486,1.8355,,0.4407,0.4420,0.3953,15.316,15.5003,24.1420,79.822,,30.9024,27.5222,0.0326,,,,-99.0,,-99.0,-99.0,26.9526,,26.9537,,0.6399,85.2152,,7.542,,1.9043E+00,,1.0000E-12,,6.2728,6.2729,0.8870,,5.111,26.638,,,,,,,,,,,,
CalCOFI,2007SR,040,42,2007_040u,20-Jul-2020 10:05:16,20-Jul-2020 02:05:16,33.15708,-120.00654,086.7 055.0,086.7,055.0,492.000,496.094,,6.3211,,6.3216,,6.3214,34.2844,,34.2846,34.2858,,34.2874,34.2860,0.3576,,0.3560,0.3543,1.8350,,0.4395,0.4407,0.3975,15.551,15.7456,24.3483,79.801,,30.8593,27.6038,0.0330,,,,-99.0,,-99.0,-99.0,26.9518,,26.9527,,0.6395,85.2252,,7.542,,1.9043E+00,,1.0000E-12,,6.2767,6.2772,0.8870,,5.190,26.634,,,,,,,,,,,,
CalCOFI,2007SR,040,42,2007_040u,20-Jul-2020 10:05:17,20-Jul-2020 02:05:17,33.15710,-120.00654,086.7 055.0,086.7,055.0,491.000,495.085,,6.3306,,6.3310,,6.3308,34.2835,,34.2837,34.2850,,34.2866,34.2852,0.3590,,0.3574,0.3557,1.8343,,0.4378,0.4389,0.3973,15.612,15.8093,24.4018,79.771,,30.7977,27.5998,0.0326,,,,-99.0,,-99.0,-99.0,26.9498,,26.9509,,0.6397,85.2205,,7.542,,1.9043E+00,,1.0000E-12,,6.2863,6.2867,0.8870,,5.212,26.629,,,,,,,,,,,,
CalCOFI,2007SR,040,42,2007_040u,20-Jul-2020 10:05:17,20-Jul-2020 02:05:17,33.15710,-120.00654,086.7 055.0,086.7,055.0,490.000,494.075,,6.3340,,6.3343,,6.3342,34.2833,,34.2835,34.2846,,34.2862,34.2849,0.3550,,0.3532,0.3516,1.8339,,0.4369,0.4379,0.3948,15.440,15.6297,24.2508,79.755,,30.7649,27.5079,0.0340,,,,-99.0,,-99.0,-99.0,26.9491,,26.9502,,0.6397,85.2205,,7.542,,1.9043E+00,,1.0000E-12,,6.2898,6.2901,0.8870,,5.154,26.626,,,,,,,,,,,,
CalCOFI,2007SR,040,42,2007_040u,20-Jul-2020 10:05:18,20-Jul-2020 02:05:18,33.15710,-120.00654,086.7 055.0,086.7,055.0,489.000,493.066,,6.3352,,6.3353,,6.3353,34.2833,,34.2835,34.2847,,34.2863,34.2849,0.3549,,0.3531,0.3514,1.8337,,0.4364,0.4374,0.3944,15.434,15.6235,24.2456,79.742,,30.7382,27.4919,0.0330,,,,-99.0,,-99.0,-99.0,26.9490,,26.9501,,0.6397,85.2205,,7.542,,1.9043E+00,,1.0000E-12,,6.2910,6.2912,0.8870,,5.153,26.622,,,,,,,,,,,,
CalCOFI,2007SR,040,42,2007_040u,20-Jul-2020 10:05:19,20-Jul-2020 02:05:19,33.15710,-120.00654,086.7 055.0,086.7,055.0,488.000,492.056,,6.3368,,6.3372,,6.3370,34.2837,,34.2839,34.2849,,34.2865,34.2852,0.3548,,0.3530,0.3513,1.8333,,0.4354,0.4364,0.3939,15.432,15.6214,24.2438,79.727,,30.7074,27.4756,0.0334,,,,-99.0,,-99.0,-99.0,26.9491,,26.9500,,0.6395,85.2248,,7.542,,1.9043E+00,,1.0000E-12,,6.2927,6.2932,0.8870,,5.152,26.619,,,,,,,,,,,,
CalCOFI,2007SR,040,42,2007_040u,20-Jul-2020 10:05:20,20-Jul-2020 02:05:20,33.15710,-120.00656,086.7 055.0,086.7,055.0,487.000,491.047,,6.3413,,6.3415,,6.3414,34.2839,,34.2841,34.2853,,34.2869,34.2855,0.3597,,0.3582,0.3565,1.8329,,0.4345,0.4354,0.3960,15.643,15.8416,24.4290,79.708,,30.6684,27.5487,0.0323,,,,-99.0,,-99.0,-99.0,26.9486,,26.9497,,0.6397,85.2205,,7.542,,1.9043E+00,,1.0000E-12,,6.2973,6.2975,0.8870,,5.223,26.615,,,,,,,,,,,,
CalCOFI,2007SR,040,42,2007_040u,20-Jul-2020 10:05:21,20-Jul-2020 02:05:21,33.15710,-120.00655,086.7 055.0,086.7,055.0,486.000,490.037,,6.3494,,6.3498,,6.3496,34.2842,,34.2844,34.2856,,34.2872,34.2858,0.3641,,0.3627,0.3611,1.8311,,0.4302,0.4309,0.3960,15.833,16.0400,24.5958,79.631,,30.5104,27.5531,0.0328,,,,-99.0,,-99.0,-99.0,26.9479,,26.9489,,0.6397,85.2205,,7.542,,1.9043E+00,,1.0000E-12,,6.3055,6.3059,0.8870,,5.288,26.594,,,,,,,,,,,,
CalCOFI,2007SR,040,42,2007_040u,20-Jul-2020 10:05:22,20-Jul-2020 02:05:22,33.15710,-120.00654,086.7 055.0,086.7,055.0,485.000,489.028,,6.3605,,6.3607,,6.3606,34.2845,,34.2847,34.2858,,34.2874,34.2861,0.3602,,0.3587,0.3570,1.8306,,0.4290,0.4296,0.3933,15.663,15.8625,24.4466,79.610,,30.4673,27.4570,0.0321,,,,-99.0,,-99.0,-99.0,26.9466,,26.9476,,0.6397,85.2205,,7.542,,1.9043E+00,,1.0000E-12,,6.3166,6.3168,0.8870,,5.232,26.594,,,,,,,,,,,,
CalCOFI,2007SR,040,42,2007_040u,20-Jul-2020 10:05:23,20-Jul-2020 02:05:23,33.15710,-120.00654,086.7 055.0,086.7,055.0,484.000,488.018,,6.3697,,6.3707,,6.3702,34.2841,,34.2843,34.2855,,34.2871,34.2857,0.3667,,0.3655,0.3638,1.8317,,0.4316,0.4324,0.3981,15.946,16.1579,24.6949,79.658,,30.5658,27.6304,0.0324,,,,-99.0,,-99.0,-99.0,26.9451,,26.9461,,0.6397,85.2205,,7.542,,1.9043E+00,,1.0000E-12,,6.3259,6.3269,0.8870,,5.328,26.616,,,,,,,,,,,,
CalCOFI,2007SR,040,42,2007_040u,20-Jul-2020 10:05:24,20-Jul-2020 02:05:24,33.15710,-120.00656,086.7 055.0,086.7,055.0,483.000,487.009,,6.3787,,6.3796,,6.3792,34.2825,,34.2827,34.2836,,34.2852,34.2840,0.3712,,0.3702,0.3685,1.8284,,0.4237,0.4241,0.3963,16.143,16.3636,24.8678,79.514,,30.2703,27.5691,0.0326,,,,-99.0,,-99.0,-99.0,26.9427,,26.9435,,0.6397,85.2205,,7.542,,1.9043E+00,,1.0000E-12,,6.3349,6.3358,0.8870,,5.395,26.573,,,,,,,,,,,,
CalCOFI,2007SR,040,42,2007_040u,20-Jul-2020 10:05:26,20-Jul-2020 02:05:26,33.15710,-120.00656,086.7 055.0,086.7,055.0,482.000,485.999,,6.3834,,6.3840,,6.3837,34.2816,,34.2818,34.2829,,34.2845,34.2832,0.3789,,0.3782,0.3766,1.8257,,0.4173,0.4172,0.3969,16.479,16.7143,25.1627,79.398,,30.0322,27.5975,0.0323,,,,-99.0,,-99.0,-99.0,26.9413,,26.9423,,0.6397,85.2205,,7.542,,1.9043E+00,,1.0000E-12,,6.3397,6.3403,0.8870,,5.507,26.537,,,,,,,,,,,,
CalCOFI,2007SR,040,42,2007_040u,20-Jul-2020 10:05:27,20-Jul-2020 02:05:27,33.15710,-120.00654,086.7 055.0,086.7,055.0,481.000,484.990,,6.4126,,6.4142,,6.4134,34.2802,,34.2804,34.2824,,34.2840,34.2822,0.3847,,0.3843,0.3826,1.8215,,0.4073,0.4067,0.3947,16.731,16.9774,25.3839,79.215,,29.6566,27.5203,0.0328,,,,-99.0,,-99.0,-99.0,26.9364,,26.9380,,0.6406,85.2006,,7.542,,1.9043E+00,,1.0000E-12,,6.3689,6.3705,0.8870,,5.596,26.494,,,,,,,,,,,,
CalCOFI,2007SR,040,42,2007_040u,20-Jul-2020 10:05:28,20-Jul-2020 02:05:28,33.15710,-120.00654,086.7 055.0,086.7,055.0,480.000,483.980,,6.4423,,6.4448,,6.4436,34.2777,,34.2779,34.2790,,34.2806,34.2793,0.3874,,0.3871,0.3855,1.8285,,0.4240,0.4243,0.4049,16.846,17.0974,25.4848,79.520,,30.2826,27.8837,0.0324,,,,-99.0,,-99.0,-99.0,26.9306,,26.9313,,0.6398,85.2177,,7.542,,1.9043E+00,,1.0000E-12,,6.3986,6.4011,0.8870,,5.638,26.614,,,,,,,,,,,,
CalCOFI,2007SR,040,42,2007_040u,20-Jul-2020 10:05:29,20-Jul-2020 02:05:29,33.15710,-120.00654,086.7 055.0,086.7,055.0,479.000,482.971,,6.4551,,6.4560,,6.4556,34.2766,,34.2768,34.2780,,34.2796,34.2782,0.3911,,0.3910,0.3893,1.8230,,0.4108,0.4104,0.3999,17.007,17.2655,25.6261,79.280,,29.7900,27.7081,0.0329,,,,-99.0,,-99.0,-99.0,26.9280,,26.9290,,0.6406,85.2010,,7.542,,1.9043E+00,,1.0000E-12,,6.4115,6.4124,0.8870,,5.693,26.541,,,,,,,,,,,,
CalCOFI,2007SR,040,42,2007_040u,20-Jul-2020 10:05:29,20-Jul-2020 02:05:29,33.15710,-120.00654,086.7 055.0,086.7,055.0,478.000,481.961,,6.4692,,6.4698,,6.4695,34.2769,,34.2771,34.2785,,34.2801,34.2786,0.3916,,0.3915,0.3899,1.8186,,0.4003,0.3993,0.3946,17.030,17.2895,25.6463,79.090,,29.4001,27.5232,0.0324,,,,-99.0,,-99.0,-99.0,26.9264,,26.9276,,0.6397,85.2196,,7.542,,1.9043E+00,,1.0000E-12,,6.4256,6.4262,0.8870,,5.703,26.485,,,,,,,,,,,,
CalCOFI,2007SR,040,42,2007_040u,20-Jul-2020 10:05:30,20-Jul-2020 02:05:30,33.15710,-120.00654,086.7 055.0,086.7,055.0,477.000,480.952,,6.4834,,6.4838,,6.4836,34.2759,,34.2761,34.2774,,34.2790,34.2776,0.3940,,0.3940,0.3924,1.8265,,0.4192,0.4193,0.4059,17.134,17.3981,25.7376,79.434,,30.1061,27.9219,0.0321,,,,-99.0,,-99.0,-99.0,26.9237,,26.9248,,0.6411,85.1904,,7.542,,1.9043E+00,,1.0000E-12,,6.4399,6.4402,0.8870,,5.740,26.609,,,,,,,,,,,,
CalCOFI,2007SR,040,42,2007_040u,20-Jul-2020 10:05:31,20-Jul-2020 02:05:31,33.15710,-120.00656,086.7 055.0,086.7,055.0,476.000,479.942,,6.4866,,6.4874,,6.4870,34.2757,,34.2759,34.2771,,34.2787,34.2773,0.3936,,0.3936,0.3920,1.8213,,0.4068,0.4061,0.3991,17.116,17.3793,25.7218,79.208,,29.6422,27.6820,0.0333,,,,-99.0,,-99.0,-99.0,26.9232,,26.9241,,0.6403,85.2079,,7.542,,1.9043E+00,,1.0000E-12,,6.4431,6.4439,0.8870,,5.734,26.535,,,,,,,,,,,,
CalCOFI,2007SR,040,42,2007_040u,20-Jul-2020 10:05:32,20-Jul-2020 02:05:32,33.15710,-120.00656,086.7 055.0,086.7,055.0,475.000,478.933,,6.4883,,6.4887,,6.4885,34.2758,,34.2760,34.2771,,34.2787,34.2774,0.3930,,0.3929,0.3913,1.8242,,0.4137,0.4135,0.4024,17.090,17.3522,25.6990,79.332,,29.8967,27.7979,0.0332,,,,-99.0,,-99.0,-99.0,26.9230,,26.9240,,0.6397,85.2201,,7.542,,1.9043E+00,,1.0000E-12,,6.4449,6.4453,0.8870,,5.725,26.578,,,,,,,,,,,,
CalCOFI,2007SR,040,42,2007_040u,20-Jul-2020 10:05:33,20-Jul-2020 02:05:33,33.15710,-120.00655,086.7 055.0,086.7,055.0,474.000,477.923,,6.4894,,6.4898,,6.4896,34.2756,,34.2758,34.2770,,34.2786,34.2772,0.3973,,0.3974,0.3958,1.8239,,0.4130,0.4127,0.4043,17.277,17.5474,25.8631,79.320,,29.8721,27.8676,0.0325,,,,-99.0,,-99.0,-99.0,26.9227,,26.9237,,0.6406,85.2016,,7.542,,1.9043E+00,,1.0000E-12,,6.4461,6.4465,0.8870,,5.788,26.574,,,,,,,,,,,,
CalCOFI,2007SR,040,42,2007_040u,20-Jul-2020 10:05:35,20-Jul-2020 02:05:35,33.15710,-120.00654,086.7 055.0,086.7,055.0,473.000,476.914,,6.4913,,6.4914,,6.4914,34.2755,,34.2757,34.2767,,34.2783,34.2770,0.3973,,0.3974,0.3958,1.8225,,0.4097,0.4092,0.4025,17.277,17.5474,25.8631,79.257,,29.7428,27.8030,0.0338,,,,-99.0,,-99.0,-99.0,26.9223,,26.9232,,0.6409,85.1944,,7.542,,1.9043E+00,,1.0000E-12,,6.4481,6.4482,0.8870,,5.788,26.554,,,,,,,,,,,,
CalCOFI,2007SR,040,42,2007_040u,20-Jul-2020 10:05:36,20-Jul-2020 02:05:36,33.15710,-120.00654,086.7 055.0,086.7,055.0,472.000,475.905,,6.4943,,6.4947,,6.4945,34.2752,,34.2754,34.2764,,34.2780,34.2767,0.4008,,0.4011,0.3995,1.8221,,0.4087,0.4082,0.4039,17.429,17.7060,25.9965,79.240,,29.7079,27.8522,0.0335,,,,-99.0,,-99.0,-99.0,26.9217,,26.9226,,0.6398,85.2184,,7.542,,1.9043E+00,,1.0000E-12,,6.4512,6.4516,0.8870,,5.840,26.551,,,,,,,,,,,,
CalCOFI,2007SR,040,42,2007_040u,20-Jul-2020 10:05:37,20-Jul-2020 02:05:37,33.15710,-120.00654,086.7 055.0,086.7,055.0,471.000,474.895,,6.4976,,6.4982,,6.4979,34.2750,,34.2752,34.2761,,34.2777,34.2765,0.4041,,0.4045,0.4030,1.8217,,0.4077,0.4072,0.4051,17.574,17.8574,26.1237,79.223,,29.6730,27.8984,0.0321,,,,-99.0,,-99.0,-99.0,26.9211,,26.9219,,0.6397,85.2205,,7.542,,1.9043E+00,,1.0000E-12,,6.4546,6.4552,0.8870,,5.889,26.547,,,,,,,,,,,,
CalCOFI,2007SR,040,42,2007_040u,20-Jul-2020 10:05:38,20-Jul-2020 02:05:38,33.15710,-120.00654,086.7 055.0,086.7,055.0,470.000,473.886,,6.5037,,6.5064,,6.5051,34.2746,,34.2748,34.2761,,34.2777,34.2763,0.4077,,0.4083,0.4067,1.8210,,0.4061,0.4054,0.4061,17.730,18.0202,26.2606,79.196,,29.6176,27.9391,0.0329,,,,-99.0,,-99.0,-99.0,26.9200,,26.9208,,0.6397,85.2205,,7.542,,1.9043E+00,,1.0000E-12,,6.4607,6.4634,0.8870,,5.942,26.543,,,,,,,,,,,,
CalCOFI,2007SR,040,42,2007_040u,20-Jul-2020 10:05:39,20-Jul-2020 02:05:39,33.15710,-120.00654,086.7 055.0,086.7,055.0,469.000,472.876,,6.5204,,6.5222,,6.5213,34.2731,,34.2733,34.2742,,34.2758,34.2746,0.4068,,0.4074,0.4058,1.8208,,0.4056,0.4049,0.4054,17.693,17.9816,26.2282,79.184,,29.5930,27.9106,0.0325,,,,-99.0,,-99.0,-99.0,26.9166,,26.9172,,0.6402,85.2091,,7.542,,1.9043E+00,,1.0000E-12,,6.4774,6.4793,0.8870,,5.932,26.548,,,,,,,,,,,,
CalCOFI,2007SR,040,42,2007_040u,20-Jul-2020 10:05:40,20-Jul-2020 02:05:40,33.15710,-120.00654,086.7 055.0,086.7,055.0,468.000,471.867,,6.5247,,6.5253,,6.5250,34.2726,,34.2728,34.2738,,34.2754,34.2741,0.4079,,0.4085,0.4069,1.8247,,0.4149,0.4147,0.4108,17.738,18.0286,26.2677,79.357,,29.9481,28.1079,0.0328,,,,-99.0,,-99.0,-99.0,26.9156,,26.9165,,0.6397,85.2207,,7.542,,1.9043E+00,,1.0000E-12,,6.4818,6.4824,0.8870,,5.947,26.608,,,,,,,,,,,,
CalCOFI,2007SR,040,42,2007_040u,20-Jul-2020 10:05:41,20-Jul-2020 02:05:41,33.15710,-120.00654,086.7 055.0,086.7,055.0,467.000,470.858,,6.5257,,6.5261,,6.5259,34.2724,,34.2726,34.2736,,34.2752,34.2739,0.4160,,0.4170,0.4154,1.8197,,0.4030,0.4021,0.4088,18.091,18.3971,26.5775,79.138,,29.4986,28.0381,0.0330,,,,-99.0,,-99.0,-99.0,26.9153,,26.9162,,0.6397,85.2205,,7.544,,1.9043E+00,,1.0000E-12,,6.4830,6.4834,0.8870,,6.066,26.535,,,,,,,,,,,,
CalCOFI,2007SR,040,42,2007_040u,20-Jul-2020 10:05:41,20-Jul-2020 02:05:41,33.15710,-120.00654,086.7 055.0,086.7,055.0,466.000,469.848,,6.5247,,6.5247,,6.5247,34.2719,,34.2721,34.2733,,34.2749,34.2735,0.4174,,0.4184,0.4169,1.8165,,0.3953,0.3940,0.4055,18.153,18.4618,26.6319,79.000,,29.2154,27.9237,0.0325,,,,-99.0,,-99.0,-99.0,26.9150,,26.9161,,0.6399,85.2166,,7.543,,1.9043E+00,,1.0000E-12,,6.4821,6.4820,0.8870,,6.086,26.488,,,,,,,,,,,,
CalCOFI,2007SR,040,42,2007_040u,20-Jul-2020 10:05:42,20-Jul-2020 02:05:42,33.15710,-120.00654,086.7 055.0,086.7,055.0,465.000,468.839,,6.5226,,6.5228,,6.5227,34.2715,,34.2717,34.2726,,34.2742,34.2730,0.4186,,0.4197,0.4181,1.8266,,0.4194,0.4195,0.4188,18.207,18.5182,26.6793,79.436,,30.1102,28.3948,0.0340,,,,-99.0,,-99.0,-99.0,26.9149,,26.9158,,0.6404,85.2045,,7.543,,1.9043E+00,,1.0000E-12,,6.4800,6.4802,0.8870,,6.104,26.632,,,,,,,,,,,,